| time (UTC) | temp C | wind direction | speed KPH | gust KPH | rain 1hr cm | rain 24hr cm | rain mn cm | humidity % | barometer mb |
| 20260509010033 | 3 | 146 | 0.0 | 3.2 | 0.00 | 0.00 | 0.00 | 67 | 1026.9 |
| 20260509005027 | 3 | 0.0 | 0.0 | 0.00 | 0.00 | 0.00 | 65 | 1027.0 | |
| 20260509004023 | 4 | 169 | 0.0 | 1.6 | 0.00 | 0.00 | 0.00 | 61 | 1027.0 |
| 20260509003018 | 5 | 171 | 0.0 | 1.6 | 0.00 | 0.00 | 0.00 | 58 | 1027.0 |
| 20260509002033 | 5 | 0.0 | 0.0 | 0.00 | 0.00 | 0.00 | 56 | 1027.0 | |
| 20260509001029 | 4 | 0.0 | 0.0 | 0.00 | 0.00 | 0.00 | 60 | 1027.0 | |
| 20260509000023 | 4 | 177 | 0.0 | 1.6 | 0.00 | 0.00 | 0.00 | 61 | 1027.1 |
| 20260508235019 | 5 | 176 | 0.0 | 1.6 | 0.00 | 0.00 | 0.00 | 59 | 1027.0 |
| 20260508234034 | 5 | 0.0 | 0.0 | 0.00 | 0.00 | 0.00 | 60 | 1027.1 | |
| 20260508233030 | 5 | 0.0 | 0.0 | 0.00 | 0.00 | 0.00 | 57 | 1027.1 | |
| 20260508232045 | 6 | 170 | 0.0 | 1.6 | 0.00 | 0.00 | 0.00 | 56 | 1026.9 |
| 20260508231020 | 6 | 172 | 0.0 | 1.6 | 0.00 | 0.00 | 0.00 | 55 | 1026.9 |
| 20260508230017 | 6 | 164 | 0.0 | 1.6 | 0.00 | 0.00 | 0.00 | 52 | 1026.9 |
| 20260508225052 | 7 | 166 | 0.0 | 1.6 | 0.00 | 0.00 | 0.00 | 52 | 1026.7 |
| 20260508224027 | 7 | 173 | 0.0 | 1.6 | 0.00 | 0.00 | 0.00 | 51 | 1026.9 |
| 20260508223022 | 7 | 185 | 0.0 | 1.6 | 0.00 | 0.00 | 0.00 | 50 | 1026.9 |
| 20260508222017 | 7 | 186 | 0.0 | 3.2 | 0.00 | 0.00 | 0.00 | 50 | 1026.8 |
| 20260508221032 | 7 | 196 | 0.0 | 4.8 | 0.00 | 0.00 | 0.00 | 50 | 1026.8 |
| 20260508220028 | 8 | 179 | 1.6 | 9.7 | 0.00 | 0.00 | 0.00 | 49 | 1026.7 |
| 20260508215044 | 8 | 185 | 1.6 | 4.8 | 0.00 | 0.00 | 0.00 | 49 | 1026.8 |
| 20260508214018 | 8 | 183 | 1.6 | 4.8 | 0.00 | 0.00 | 0.00 | 49 | 1026.6 |
| 20260508213034 | 8 | 182 | 0.0 | 3.2 | 0.00 | 0.00 | 0.00 | 48 | 1026.6 |
| 20260508212029 | 8 | 184 | 1.6 | 6.4 | 0.00 | 0.00 | 0.00 | 47 | 1026.4 |
| 20260508211025 | 9 | 193 | 1.6 | 3.2 | 0.00 | 0.00 | 0.00 | 48 | 1026.4 |
| 20260508210020 | 9 | 193 | 1.6 | 6.4 | 0.00 | 0.00 | 0.00 | 46 | 1026.3 |
| 20260508205023 | 10 | 186 | 1.6 | 6.4 | 0.00 | 0.00 | 0.00 | 46 | 1026.2 |
| 20260508204031 | 10 | 172 | 1.6 | 11.3 | 0.00 | 0.00 | 0.00 | 46 | 1026.2 |
| 20260508203027 | 10 | 190 | 3.2 | 11.3 | 0.00 | 0.00 | 0.00 | 45 | 1026.1 |
| 20260508202022 | 10 | 194 | 1.6 | 4.8 | 0.00 | 0.00 | 0.00 | 46 | 1025.9 |
| 20260508201016 | 10 | 185 | 1.6 | 6.4 | 0.00 | 0.00 | 0.00 | 45 | 1025.9 |
| 20260508200032 | 11 | 177 | 3.2 | 9.7 | 0.00 | 0.00 | 0.00 | 44 | 1025.7 |
| 20260508195027 | 11 | 185 | 3.2 | 6.4 | 0.00 | 0.00 | 0.00 | 43 | 1025.7 |
| 20260508194042 | 11 | 186 | 3.2 | 9.7 | 0.00 | 0.00 | 0.00 | 43 | 1025.4 |
| 20260508193017 | 11 | 188 | 3.2 | 6.4 | 0.00 | 0.00 | 0.00 | 43 | 1025.3 |
| 20260508192032 | 11 | 196 | 3.2 | 9.7 | 0.00 | 0.00 | 0.00 | 42 | 1025.2 |
| 20260508191048 | 11 | 196 | 1.6 | 6.4 | 0.00 | 0.00 | 0.00 | 43 | 1025.1 |
| 20260508190022 | 12 | 175 | 1.6 | 4.8 | 0.00 | 0.00 | 0.00 | 42 | 1025.0 |
| 20260508185039 | 12 | 185 | 1.6 | 4.8 | 0.00 | 0.00 | 0.00 | 42 | 1024.9 |
| 20260508184033 | 12 | 198 | 1.6 | 6.4 | 0.00 | 0.00 | 0.00 | 40 | 1024.9 |
| 20260508183028 | 13 | 190 | 3.2 | 4.8 | 0.00 | 0.00 | 0.00 | 39 | 1024.8 |
| 20260508182023 | 13 | 185 | 1.6 | 9.7 | 0.00 | 0.00 | 0.00 | 39 | 1024.7 |
| 20260508181018 | 13 | 197 | 4.8 | 11.3 | 0.00 | 0.00 | 0.00 | 36 | 1024.7 |
| 20260508180033 | 14 | 195 | 3.2 | 6.4 | 0.00 | 0.00 | 0.00 | 38 | 1024.5 |
| 20260508175048 | 14 | 179 | 3.2 | 12.9 | 0.00 | 0.00 | 0.00 | 37 | 1024.3 |
| 20260508174024 | 14 | 185 | 3.2 | 11.3 | 0.00 | 0.00 | 0.00 | 37 | 1024.3 |
| 20260508173018 | 15 | 192 | 3.2 | 11.3 | 0.00 | 0.00 | 0.00 | 36 | 1024.2 |
| 20260508172034 | 15 | 185 | 6.4 | 12.9 | 0.00 | 0.00 | 0.00 | 35 | 1024.1 |
| 20260508171030 | 15 | 185 | 3.2 | 11.3 | 0.00 | 0.00 | 0.00 | 35 | 1024.0 |
| 20260508170025 | 16 | 195 | 6.4 | 24.1 | 0.00 | 0.00 | 0.00 | 34 | 1024.1 |
| 20260508165020 | 15 | 196 | 3.2 | 11.3 | 0.00 | 0.00 | 0.00 | 35 | 1023.9 |
| 20260508164035 | 16 | 183 | 1.6 | 4.8 | 0.00 | 0.00 | 0.00 | 34 | 1023.9 |
| 20260508163030 | 16 | 178 | 4.8 | 12.9 | 0.00 | 0.00 | 0.00 | 34 | 1024.0 |
| 20260508162025 | 16 | 180 | 3.2 | 9.7 | 0.00 | 0.00 | 0.00 | 33 | 1023.9 |
| 20260508161020 | 16 | 188 | 3.2 | 9.7 | 0.00 | 0.00 | 0.00 | 33 | 1024.0 |
| 20260508160015 | 17 | 193 | 6.4 | 16.1 | 0.00 | 0.00 | 0.00 | 32 | 1024.0 |
| 20260508155031 | 16 | 191 | 3.2 | 11.3 | 0.00 | 0.00 | 0.00 | 33 | 1024.0 |
| 20260508154026 | 16 | 184 | 3.2 | 11.3 | 0.00 | 0.00 | 0.00 | 34 | 1024.0 |
| 20260508153021 | 16 | 198 | 6.4 | 12.9 | 0.00 | 0.00 | 0.00 | 32 | 1024.0 |
| 20260508152016 | 16 | 184 | 4.8 | 9.7 | 0.00 | 0.00 | 0.00 | 32 | 1024.2 |
| 20260508151033 | 16 | 207 | 4.8 | 11.3 | 0.00 | 0.00 | 0.00 | 32 | 1024.1 |
| 20260508150027 | 16 | 212 | 4.8 | 14.5 | 0.00 | 0.00 | 0.00 | 32 | 1024.1 |
| 20260508145022 | 17 | 187 | 4.8 | 11.3 | 0.00 | 0.00 | 0.00 | 32 | 1024.1 |
| 20260508144017 | 17 | 206 | 6.4 | 11.3 | 0.00 | 0.00 | 0.00 | 32 | 1024.3 |
| 20260508143033 | 16 | 209 | 4.8 | 12.9 | 0.00 | 0.00 | 0.00 | 32 | 1024.2 |
| 20260508142029 | 17 | 197 | 4.8 | 11.3 | 0.00 | 0.00 | 0.00 | 33 | 1024.4 |
| 20260508141023 | 17 | 209 | 4.8 | 14.5 | 0.00 | 0.00 | 0.00 | 32 | 1024.4 |
| 20260508140019 | 17 | 200 | 3.2 | 12.9 | 0.00 | 0.00 | 0.00 | 33 | 1024.4 |
| 20260508135054 | 16 | 195 | 6.4 | 14.5 | 0.00 | 0.00 | 0.00 | 33 | 1024.3 |
| 20260508134030 | 16 | 192 | 4.8 | 9.7 | 0.00 | 0.00 | 0.00 | 33 | 1024.5 |
| 20260508133025 | 17 | 202 | 6.4 | 14.5 | 0.00 | 0.00 | 0.00 | 33 | 1024.5 |
| 20260508132020 | 17 | 199 | 4.8 | 9.7 | 0.00 | 0.00 | 0.00 | 32 | 1024.6 |
| 20260508131035 | 16 | 196 | 6.4 | 14.5 | 0.00 | 0.00 | 0.00 | 32 | 1024.7 |
| 20260508130030 | 17 | 177 | 3.2 | 9.7 | 0.00 | 0.00 | 0.00 | 31 | 1024.6 |
| 20260508125105 | 17 | 173 | 4.8 | 11.3 | 0.00 | 0.00 | 0.00 | 32 | 1024.8 |
| 20260508124020 | 17 | 185 | 4.8 | 9.7 | 0.00 | 0.00 | 0.00 | 31 | 1024.8 |
| 20260508123016 | 17 | 204 | 6.4 | 17.7 | 0.00 | 0.00 | 0.00 | 31 | 1024.9 |
| 20260508122032 | 17 | 196 | 4.8 | 9.7 | 0.00 | 0.00 | 0.00 | 33 | 1024.8 |
| 20260508121027 | 16 | 206 | 4.8 | 12.9 | 0.00 | 0.00 | 0.00 | 33 | 1025.0 |
| 20260508120022 | 16 | 203 | 6.4 | 11.3 | 0.00 | 0.00 | 0.00 | 33 | 1024.9 |
| 20260508115037 | 16 | 181 | 4.8 | 12.9 | 0.00 | 0.00 | 0.00 | 33 | 1025.0 |
| 20260508114053 | 16 | 194 | 4.8 | 9.7 | 0.00 | 0.00 | 0.00 | 33 | 1024.9 |
| 20260508113027 | 16 | 177 | 4.8 | 12.9 | 0.00 | 0.00 | 0.00 | 33 | 1025.1 |
| 20260508112042 | 16 | 177 | 4.8 | 14.5 | 0.00 | 0.00 | 0.00 | 34 | 1025.1 |
| 20260508111018 | 16 | 173 | 3.2 | 9.7 | 0.00 | 0.00 | 0.00 | 33 | 1025.3 |
| 20260508110034 | 16 | 215 | 6.4 | 12.9 | 0.00 | 0.00 | 0.00 | 31 | 1025.2 |
| 20260508105029 | 16 | 182 | 6.4 | 16.1 | 0.00 | 0.00 | 0.00 | 31 | 1025.3 |
| 20260508104024 | 16 | 162 | 4.8 | 11.3 | 0.00 | 0.00 | 0.00 | 30 | 1025.3 |
| 20260508103140 | 15 | 198 | 4.8 | 12.9 | 0.00 | 0.00 | 0.00 | 32 | 1025.3 |
| 20260508102034 | 15 | 212 | 4.8 | 12.9 | 0.00 | 0.00 | 0.00 | 32 | 1025.4 |
| 20260508101110 | 15 | 205 | 6.4 | 14.5 | 0.00 | 0.00 | 0.00 | 32 | 1025.5 |
| 20260508100026 | 15 | 212 | 6.4 | 14.5 | 0.00 | 0.00 | 0.00 | 32 | 1025.5 |
| 20260508095041 | 14 | 214 | 6.4 | 12.9 | 0.00 | 0.00 | 0.00 | 32 | 1025.6 |
| 20260508094036 | 15 | 179 | 3.2 | 6.4 | 0.00 | 0.00 | 0.00 | 31 | 1025.7 |
| 20260508093032 | 15 | 203 | 4.8 | 12.9 | 0.00 | 0.00 | 0.00 | 31 | 1025.7 |
| 20260508092046 | 15 | 193 | 4.8 | 11.3 | 0.00 | 0.00 | 0.00 | 31 | 1025.8 |
| 20260508091021 | 14 | 190 | 3.2 | 11.3 | 0.00 | 0.00 | 0.00 | 29 | 1025.8 |
| 20260508090037 | 13 | 190 | 6.4 | 12.9 | 0.00 | 0.00 | 0.00 | 28 | 1025.7 |
| 20260508085112 | 13 | 198 | 6.4 | 16.1 | 0.00 | 0.00 | 0.00 | 29 | 1025.8 |
| 20260508084028 | 13 | 202 | 4.8 | 9.7 | 0.00 | 0.00 | 0.00 | 29 | 1025.9 |
| 20260508083023 | 13 | 187 | 4.8 | 9.7 | 0.00 | 0.00 | 0.00 | 29 | 1025.9 |
| 20260508082038 | 13 | 189 | 6.4 | 12.9 | 0.00 | 0.00 | 0.00 | 29 | 1025.9 |
| 20260508081034 | 12 | 209 | 4.8 | 11.3 | 0.00 | 0.00 | 0.00 | 30 | 1026.0 |
| 20260508080030 | 12 | 198 | 3.2 | 6.4 | 0.00 | 0.00 | 0.00 | 33 | 1025.9 |
| 20260508075025 | 12 | 195 | 3.2 | 9.7 | 0.00 | 0.00 | 0.00 | 32 | 1025.9 |
| 20260508074020 | 11 | 207 | 4.8 | 9.7 | 0.00 | 0.00 | 0.00 | 31 | 1025.9 |
| 20260508073015 | 11 | 200 | 4.8 | 12.9 | 0.00 | 0.00 | 0.00 | 32 | 1025.9 |
| 20260508072031 | 11 | 187 | 3.2 | 9.7 | 0.00 | 0.00 | 0.00 | 36 | 1025.7 |
| 20260508071025 | 10 | 192 | 3.2 | 11.3 | 0.00 | 0.00 | 0.00 | 38 | 1025.8 |
| 20260508070021 | 10 | 157 | 4.8 | 11.3 | 0.00 | 0.00 | 0.00 | 39 | 1025.9 |
| 20260508065017 | 10 | 197 | 4.8 | 9.7 | 0.00 | 0.00 | 0.00 | 40 | 1025.8 |
| 20260508064052 | 9 | 167 | 1.6 | 3.2 | 0.00 | 0.00 | 0.00 | 59 | 1025.7 |
| 20260508063027 | 8 | 170 | 0.0 | 3.2 | 0.00 | 0.00 | 0.00 | 64 | 1025.7 |
| 20260508062022 | 7 | 170 | 0.0 | 1.6 | 0.00 | 0.00 | 0.00 | 69 | 1025.8 |
| 20260508061017 | 6 | 165 | 0.0 | 1.6 | 0.00 | 0.00 | 0.00 | 69 | 1025.7 |
| 20260508060033 | 6 | 159 | 0.0 | 3.2 | 0.00 | 0.00 | 0.00 | 71 | 1025.7 |
| 20260508055028 | 6 | 178 | 0.0 | 1.6 | 0.00 | 0.00 | 0.00 | 72 | 1025.6 |
| 20260508054023 | 4 | 204 | 1.6 | 3.2 | 0.00 | 0.00 | 0.00 | 76 | 1025.6 |
| 20260508053038 | 5 | 0.0 | 0.0 | 0.00 | 0.00 | 0.00 | 74 | 1025.4 | |
| 20260508052033 | 3 | 0.0 | 0.0 | 0.00 | 0.00 | 0.00 | 77 | 1025.5 | |
| 20260508051049 | 2 | 195 | 0.0 | 1.6 | 0.00 | 0.00 | 0.00 | 81 | 1025.4 |
| 20260508050025 | 1 | 0.0 | 0.0 | 0.00 | 0.00 | 0.00 | 82 | 1025.2 | |
| 20260508045020 | 2 | 0.0 | 0.0 | 0.00 | 0.00 | 0.00 | 80 | 1025.1 | |
| 20260508044020 | 0 | 0.0 | 0.0 | 0.00 | 0.00 | 0.00 | 88 | 1025.1 | |
| 20260508043031 | 0 | 202 | 0.0 | 1.6 | 0.00 | 0.00 | 0.00 | 89 | 1025.0 |
| 20260508042027 | 0 | 0.0 | 0.0 | 0.00 | 0.00 | 0.00 | 87 | 1024.8 | |
| 20260508041023 | 0 | 0.0 | 0.0 | 0.00 | 0.00 | 0.00 | 86 | 1024.9 | |
| 20260508040017 | 0 | 0.0 | 0.0 | 0.00 | 0.00 | 0.00 | 92 | 1024.9 | |
| 20260508035034 | -1 | 0.0 | 0.0 | 0.00 | 0.00 | 0.00 | 97 | 1024.9 | |
| 20260508034028 | -3 | 0.0 | 0.0 | 0.00 | 0.00 | 0.00 | 97 | 1024.8 | |
| 20260508033044 | -3 | 0.0 | 0.0 | 0.00 | 0.00 | 0.00 | 97 | 1024.7 | |
| 20260508032020 | -3 | 0.0 | 0.0 | 0.00 | 0.00 | 0.00 | 97 | 1024.8 | |
| 20260508031016 | -3 | 0.0 | 0.0 | 0.00 | 0.00 | 0.00 | 97 | 1024.7 | |
| 20260508030031 | -3 | 0.0 | 0.0 | 0.00 | 0.00 | 0.00 | 97 | 1024.7 | |
| 20260508025027 | -3 | 0.0 | 0.0 | 0.00 | 0.00 | 0.00 | 96 | 1024.5 | |
| 20260508024022 | -3 | 0.0 | 0.0 | 0.00 | 0.00 | 0.00 | 96 | 1024.4 | |
| 20260508023018 | -3 | 0.0 | 0.0 | 0.00 | 0.00 | 0.00 | 96 | 1024.3 | |
| 20260508022033 | -2 | 0.0 | 0.0 | 0.00 | 0.00 | 0.00 | 96 | 1024.2 | |
| 20260508021029 | -3 | 0.0 | 0.0 | 0.00 | 0.00 | 0.00 | 95 | 1024.1 | |
| 20260508020024 | -3 | 0.0 | 0.0 | 0.00 | 0.00 | 0.00 | 95 | 1024.1 | |
| 20260508015020 | -2 | 0.0 | 0.0 | 0.00 | 0.00 | 0.00 | 95 | 1024.0 | |
| 20260508014056 | -2 | 0.0 | 0.0 | 0.00 | 0.00 | 0.00 | 94 | 1023.9 | |
| 20260508013032 | -1 | 210 | 0.0 | 1.6 | 0.00 | 0.00 | 0.00 | 94 | 1023.9 |
| 20260508012026 | -1 | 210 | 0.0 | 1.6 | 0.00 | 0.00 | 0.00 | 94 | 1023.7 |
| 20260508011041 | -2 | 212 | 0.0 | 3.2 | 0.00 | 0.00 | 0.00 | 95 | 1023.7 |